Tracking 29034 objects as of 25-Jun-2024
HD Live streaming from Space Station
objects crossing your sky now

OBJECT B

Track OBJECT B now!
10-day predictions


NORAD ID: 57425
Int'l Code: 2023-104B
Perigee: 474.7 km
Apogee: 493.2 km
Inclination: 97.4 °
Period: 94.1 minutes
Semi major axis: 6854 km
RCS: Unknown
Launch date: July 23, 2023
Source: People's Republic of China (PRC)
Launch site: Taiyaun Space Center, China (TSC)
Your satellite tracking list
Your tracking list is empty




NASA's NSSDC Master Catalog

Two Line Element Set (TLE):
1 57425U 23104B   24176.91794620  .00012128  00000-0  42318-3 0  9996
2 57425  97.3554 244.8045 0013492 162.6587 197.5117 15.29666951 51567
Source of the keplerian elements: AFSPC